Weather History for Franklin, PA

Change the Weather History Date:

Wednesday, January 23, 2013

  Actual Average Record
Temperature  
Mean Temperature 6 °F -  
Max Temperature 12 °F 34 °F 68 °F (1933)
Min Temperature 1 °F 18 °F -12 °F (1936)
Degree Days  
Heating Degree Days 58    
Moisture  
Dew Point 0 °F    
Average Humidity 73    
Maximum Humidity 92    
Minimum Humidity 53    
Precipitation  
Precipitation 0.00 in - - ()
Sea Level Pressure  
Sea Level Pressure 30.11 in    
Wind  
Wind Speed 9 mph (SW)    
Max Wind Speed 14 mph    
Max Gust Speed 18 mph    
Visibility 9 miles    
Events      
Averages and records for this station are not official NWS values.
T = Trace of Precipitation, MM = Missing Value Source: NWS Daily Summary

Daily Weather History Graph

Daily Weather History Graph

Search for Another Location

Airport:

Trip Planner

Search our weather history database for the weather conditions in past years. The results will help you decide how hot, cold, wet, or windy it might be!

Date:

Astronomy

Jan. 23, 2013 Rise Set
Actual Time 7:38 AM EST 5:24 PM EST
Civil Twilight 7:08 AM EST 5:54 PM EST
Nautical Twilight 6:34 AM EST 6:28 PM EST
Astronomical Twilight 6:02 AM EST 7:01 PM EST
Moon 2:33 PM EST (1/23) 4:49 AM EST (1/23)
Length of Visible Light 10h 46m
Length of Day
9h 46m
Waxing Gibbous, 89% of the Moon is Illuminated
Jan 23
Waxing Gibbous
Jan 26
Full
Feb 3
Last Quarter
Feb 10
New
Feb 17
First Quarter

Hourly Weather History & Observations

Time (EST) Temp. Windchill Dew Point Humidity Pressure Visibility Wind Dir Wind Speed Gust Speed Precip Events Conditions
12:15 AM 3.2 °F -12.2 °F -2.2 °F 78% 30.13 in 10.0 mi WSW 10.4 mph - N/A   Scattered Clouds
12:35 AM 3.2 °F -10.3 °F -2.2 °F 78% 30.13 in 10.0 mi WSW 8.1 mph - N/A   Mostly Cloudy
12:55 AM 3.2 °F -12.2 °F -2.2 °F 78% 30.13 in 10.0 mi SW 10.4 mph - N/A   Mostly Cloudy
1:15 AM 3.2 °F -10.3 °F -2.2 °F 78% 30.13 in 10.0 mi WSW 8.1 mph 16.1 mph N/A   Overcast
1:35 AM 3.2 °F -10.3 °F -2.2 °F 78% 30.13 in 10.0 mi WSW 8.1 mph 16.1 mph N/A   Overcast
1:55 AM 3.2 °F -13.1 °F -0.4 °F 85% 30.13 in 10.0 mi SW 11.5 mph - N/A   Mostly Cloudy
2:15 AM 3.2 °F -13.1 °F -2.2 °F 78% 30.14 in 10.0 mi SW 11.5 mph - N/A   Mostly Cloudy
2:35 AM 3.2 °F -12.2 °F -2.2 °F 78% 30.15 in 10.0 mi WSW 10.4 mph - N/A   Mostly Cloudy
2:55 AM 3.2 °F -11.3 °F -2.2 °F 78% 30.15 in 10.0 mi WSW 9.2 mph - N/A   Mostly Cloudy
3:15 AM 3.2 °F -12.2 °F -4.0 °F 72% 30.15 in 10.0 mi WSW 10.4 mph - N/A   Mostly Cloudy
3:35 AM 3.2 °F -12.2 °F -2.2 °F 78% 30.14 in 10.0 mi SW 10.4 mph - N/A   Mostly Cloudy
3:55 AM 3.2 °F -12.2 °F -4.0 °F 72% 30.14 in 10.0 mi SW 10.4 mph - N/A   Partly Cloudy
4:15 AM 3.2 °F -11.3 °F -2.2 °F 78% 30.14 in 10.0 mi SW 9.2 mph - N/A   Mostly Cloudy
4:35 AM 3.2 °F -4.2 °F -2.2 °F 78% 30.14 in 10.0 mi SW 3.5 mph - N/A   Mostly Cloudy
4:55 AM 3.2 °F -12.2 °F -4.0 °F 72% 30.14 in 10.0 mi WSW 10.4 mph - N/A   Scattered Clouds
5:15 AM 3.2 °F -13.1 °F -4.0 °F 72% 30.14 in 10.0 mi WSW 11.5 mph - N/A   Partly Cloudy
5:35 AM 3.2 °F -10.3 °F -5.8 °F 66% 30.14 in 10.0 mi WSW 8.1 mph 16.1 mph N/A   Clear
5:55 AM 3.2 °F -13.1 °F -4.0 °F 72% 30.15 in 10.0 mi WSW 11.5 mph - N/A   Partly Cloudy
6:15 AM - - - N/A% - - North - - N/A   Unknown
6:35 AM - - - N/A% - - North - - N/A   Unknown
6:55 AM - - - N/A% - - North - - N/A   Unknown
7:15 AM - - - N/A% - - North - - N/A   Unknown
7:35 AM - - - N/A% - - North - - N/A   Unknown
7:55 AM 1.4 °F -12.5 °F -4.0 °F 78% 30.15 in 10.0 mi SW 8.1 mph - N/A   Unknown
8:15 AM 3.2 °F -9.1 °F -2.2 °F 78% 30.15 in 10.0 mi SW 6.9 mph - N/A   Clear
8:35 AM 3.2 °F -10.3 °F -2.2 °F 78% 30.16 in 10.0 mi SW 8.1 mph - N/A   Clear
8:55 AM 3.2 °F -11.3 °F -2.2 °F 78% 30.16 in 10.0 mi WSW 9.2 mph - N/A   Clear
9:15 AM 5.0 °F -8.1 °F -2.2 °F 72% 30.17 in 10.0 mi WSW 8.1 mph 16.1 mph N/A   Partly Cloudy
9:35 AM 6.8 °F -6.9 °F 1.4 °F 79% 30.17 in 10.0 mi West 9.2 mph - N/A   Partly Cloudy
9:55 AM 8.6 °F -7.7 °F 1.4 °F 73% 30.17 in 10.0 mi West 13.8 mph 17.3 mph N/A   Scattered Clouds
10:15 AM 6.8 °F -7.8 °F -0.4 °F 72% 30.17 in 10.0 mi WSW 10.4 mph - N/A   Overcast
10:35 AM 8.6 °F -5.5 °F 1.4 °F 73% 30.17 in 10.0 mi West 10.4 mph - N/A   Overcast
10:55 AM 8.6 °F -7.7 °F 1.4 °F 73% 30.17 in 9.0 mi WSW 13.8 mph - N/A   Overcast
11:15 AM 8.6 °F -5.5 °F -0.4 °F 67% 30.17 in 9.0 mi WSW 10.4 mph 17.3 mph N/A   Overcast
11:35 AM 8.6 °F -7.0 °F 1.4 °F 73% 30.16 in 5.0 mi WSW 12.7 mph 17.3 mph N/A   Overcast
11:55 AM 10.4 °F -4.8 °F 3.2 °F 73% 30.15 in 7.0 mi West 12.7 mph - N/A   Overcast
12:15 PM 10.4 °F -4.1 °F -0.4 °F 62% 30.14 in 10.0 mi West 11.5 mph - N/A   Overcast
12:35 PM 12.2 °F -0.2 °F 1.4 °F 62% 30.13 in 10.0 mi West 9.2 mph - N/A   Overcast
12:55 PM 10.4 °F -5.4 °F -2.2 °F 57% 30.13 in 10.0 mi West 13.8 mph 18.4 mph N/A   Overcast
1:15 PM 10.4 °F -3.3 °F -0.4 °F 62% 30.12 in 6.0 mi WSW 10.4 mph - N/A   Overcast
1:35 PM 12.2 °F -0.2 °F -0.4 °F 57% 30.11 in 10.0 mi SW 9.2 mph - N/A   Overcast
1:55 PM 12.2 °F -1.0 °F 1.4 °F 62% 30.10 in 10.0 mi WSW 10.4 mph 18.4 mph N/A   Overcast
2:15 PM 12.2 °F 0.7 °F 1.4 °F 62% 30.10 in 10.0 mi WSW 8.1 mph - N/A   Overcast
2:35 PM 12.2 °F -1.0 °F -2.2 °F 53% 30.10 in 10.0 mi WSW 10.4 mph - N/A   Overcast
2:55 PM 12.2 °F -0.2 °F 1.4 °F 62% 30.10 in 9.0 mi WSW 9.2 mph - N/A   Overcast
3:15 PM 12.2 °F -0.2 °F -0.4 °F 57% 30.09 in 8.0 mi West 9.2 mph - N/A   Overcast
3:35 PM 12.2 °F -1.0 °F -0.4 °F 57% 30.09 in 7.0 mi West 10.4 mph - N/A   Overcast
3:55 PM 12.2 °F 0.7 °F 1.4 °F 62% 30.09 in 10.0 mi West 8.1 mph - N/A   Mostly Cloudy
4:15 PM 10.4 °F -2.4 °F 1.4 °F 67% 30.09 in 10.0 mi SW 9.2 mph - N/A   Overcast
4:35 PM 10.4 °F -3.3 °F -0.4 °F 62% 30.09 in 10.0 mi WSW 10.4 mph - N/A   Overcast
4:55 PM 10.4 °F -1.5 °F -0.4 °F 62% 30.09 in 10.0 mi WSW 8.1 mph - N/A   Overcast
5:15 PM 10.4 °F -2.4 °F -0.4 °F 62% 30.08 in 10.0 mi WSW 9.2 mph - N/A   Mostly Cloudy
5:35 PM 10.4 °F 0.8 °F -0.4 °F 62% 30.07 in 10.0 mi SW 5.8 mph - N/A   Mostly Cloudy
5:55 PM 8.6 °F -1.3 °F 1.4 °F 73% 30.07 in 10.0 mi SSW 5.8 mph - N/A   Overcast
6:15 PM 8.6 °F -2.6 °F 1.4 °F 73% 30.06 in 9.0 mi SSW 6.9 mph - N/A   Overcast
6:35 PM 8.6 °F -2.6 °F 3.2 °F 79% 30.06 in 5.0 mi SSW 6.9 mph - N/A   Overcast
6:55 PM 8.6 °F -2.6 °F 3.2 °F 79% 30.06 in 10.0 mi SSW 6.9 mph - N/A   Overcast
7:15 PM 8.6 °F -2.6 °F 3.2 °F 79% 30.06 in 9.0 mi South 6.9 mph - N/A   Overcast
7:35 PM 6.8 °F -3.5 °F 3.2 °F 85% 30.05 in 10.0 mi South 5.8 mph - N/A   Mostly Cloudy
7:55 PM 6.8 °F -0.1 °F 3.2 °F 85% 30.06 in 10.0 mi SSW 3.5 mph - N/A   Mostly Cloudy
8:15 PM 6.8 °F -2.0 °F 1.4 °F 79% 30.05 in 10.0 mi SSW 4.6 mph - N/A   Overcast
8:35 PM 8.6 °F 0.1 °F 5.0 °F 85% 30.05 in 10.0 mi South 4.6 mph - N/A   Overcast
8:55 PM 8.6 °F -2.6 °F 5.0 °F 85% 30.05 in 4.0 mi SSW 6.9 mph - N/A   Overcast
9:15 PM 8.6 °F -2.6 °F 5.0 °F 85% 30.05 in 5.0 mi SSW 6.9 mph - N/A   Overcast
9:35 PM 8.6 °F -1.3 °F 5.0 °F 85% 30.04 in 9.0 mi South 5.8 mph - N/A   Overcast
9:55 PM 8.6 °F 0.1 °F 3.2 °F 79% 30.04 in 10.0 mi South 4.6 mph - N/A   Mostly Cloudy
10:15 PM 8.6 °F -1.3 °F 5.0 °F 85% 30.03 in 9.0 mi South 5.8 mph - N/A   Overcast
10:35 PM 8.6 °F -1.3 °F 6.8 °F 92% 30.02 in 6.0 mi South 5.8 mph - N/A   Overcast
10:55 PM 8.6 °F -1.3 °F 3.2 °F 79% 30.02 in 9.0 mi South 5.8 mph - N/A   Overcast
11:15 PM 8.6 °F -1.3 °F 3.2 °F 79% 30.01 in 6.0 mi South 5.8 mph - N/A   Overcast
11:35 PM 8.6 °F 0.1 °F 5.0 °F 85% 30.01 in 6.0 mi SSW 4.6 mph - N/A   Overcast
11:55 PM 6.8 °F -2.0 °F 1.4 °F 79% 30.00 in 9.0 mi SSW 4.6 mph - N/A   Overcast